Starlink 11731

operational
NORAD ID: 64371 Int'l Des: 2025-127 Owner: SPXS Country: US Constellation: starlink
LEOCIRCULAR

About Starlink 11731

Description loading...

Live Position

Loading 3D Globe...

Upcoming Passes

Altitude History

Altitude vs Time

uPlot chart will show altitude changes over time

Two-Line Element Set

1 64371U 25127B 26061.53319630 .00228335 00000-0 17315-2 0 9995
2 64371 43.0037 127.9611 0001980 265.4525 94.6117 15.70881720 42377
Epoch: Mar 2, 2026 • Age: 27 hours

Current Status

Altitude 355.8 km
Velocity 7.70 km/s
Sub-Earth Point -3.42°S, 97.36°E
Launch Date Jun 13, 2025
Age 0.7 years
Type internet

Technical Details

Classification Payload
Mass 960.00 kg
Dry Mass 910.00 kg
Total Mass 960.00 kg
Length 0.30 m
Diameter 4.10 m
Span 29.00 m
Shape Box + pan
Manufacturer SPXS
Bus Type Starlink V2MD
Phase Status In Orbit
Owner/State SPXS/US

Large Constellations

Loading constellations...